Regional Weather Roundup
Issued by NWS

Home | Current Version | Previous Version | Graphics & Text | Print | Product List | Glossary Off
Versions: 1 2 3 4 5 6 7 8 9 10 11 12 13 14 15 16 17 18 19 20 21 22 23 24 25 26 27 28 29 30 31 32 33 34 35 36 37 38 39 40 41 42 43 44 45 46 47 48 49 50

000
ASUS43 KDTX 292010
RWRMI
MICHIGAN HOURLY REGIONAL WEATHER ROUNDUP
NATIONAL WEATHER SERVICE DETROIT/PONTIAC MI
400 PM EDT SUN MAY 29 2016

NOTE: "FAIR" INDICATES FEW OR NO CLOUDS BELOW 12,000 FEET WITH NO
SIGNIFICANT WEATHER AND/OR OBSTRUCTION TO VISIBILITY.

MIZ047>049-052>055-059>063-066>070-074>076-081>083-292100-
SOUTHEAST LOWER MICHIGAN

CITY           SKY/WX    TMP DP  RH WIND       PRES   REMARKS
ADRIAN         LGT RAIN  84  61  45 W12       29.97F
ALMA           PTSUNNY   79  54  41 SW17G28   29.95S
ANN ARBOR      MOSUNNY   82  64  54 SW13G20   29.95F
BAD AXE        PTSUNNY   81  64  57 S12G21    29.92F
CARO           MOSUNNY   85  59  40 SW16G25   29.92F
DETROIT CITY   MOSUNNY   85  63  47 S16G23    29.95F
DETROIT        PTSUNNY   84  65  52 S12       29.95F
FLINT          PTSUNNY   86  62  44 SW10G21   29.93F
GROSSE ILE     MOSUNNY   79  68  69 SE12      29.95F
HILLSDALE      MOSUNNY   84  47  27 SW18G24   29.99F
HOWELL         PTSUNNY   82  60  46 SW14      29.95F

CITY           SKY/WX    TMP DP  RH WIND       PRES   REMARKS
JACKSON        MOSUNNY   83  57  41 SW17G24   29.97F
LAMBERTVILLE   MOSUNNY   89  59  36 SW10G17   29.96F
LANSING        MOSUNNY   84  58  40 SW17G36   29.96F
LAPEER         HVY RAIN  69  61  75 S9G32     29.97R VSB 1/2
MASON          SUNNY     84  57  39 W9G24     29.96F
MONROE         CLOUDY    88  63  43 SW13G26   29.94F
MT. CLEMENS    PTSUNNY   85  66  51 S16G23    29.93F
PONTIAC        CLOUDY    77  60  55 W14       29.95R THUNDER
PORT HOPE        N/A     72  65  78 SW8       29.92S
PORT HURON     PTSUNNY   82  66  57 S14G22    29.95F
TRI CITIES     MOSUNNY   85  56  37 SW20G28   29.92F
MIDLAND        FAIR      83  58  41 SW14G29   29.91F
TROY           CLOUDY    84  63  48 S10G20    29.96F
SAGINAW HB     SUNNY     84  55  37 SW17G31   29.91F
$$
MIZ043>046-050>051-056>058-064>065-071>073-077>080-292100-
SOUTHWEST LOWER MICHIGAN

CITY           SKY/WX    TMP DP  RH WIND       PRES   REMARKS
BATTLE CREEK   MOSUNNY   81  56  42 SW17      29.98F
BENTON HARBOR  SUNNY     76  59  55 W14G23    30.00F
BIG RAPIDS     PTSUNNY   74  58  57 SW15G29   29.94F
COLDWATER      MOSUNNY   84  52  32 SW17G28   29.99S
FREMONT        PTSUNNY   75  58  55 W18G26    29.96S
HOLLAND        SUNNY     77  60  55 W17G26    30.00S
GRAND RAPIDS   PTSUNNY   82  58  43 W21G38    29.97F
IONIA          PTSUNNY   80  52  37 W18G30    29.95F
KALAMAZOO      MOSUNNY   83  57  41 W16G25    29.98F
LUDINGTON      PTSUNNY   71  60  68 SW16G22   29.95S
MARSHALL       PTSUNNY   83  54  36 SW12G21   29.97F
MOUNT PLEASANT MOSUNNY   81  57  44 SW18G25   29.93S
MUSKEGON       PTSUNNY   73  58  59 SW13G22   29.98S
SOUTH HAVEN    SUNNY     74  59  58 W9G18     30.01S
$$
MIZ016>042-292100-
NORTHERN LOWER MICHIGAN

CITY           SKY/WX    TMP DP  RH WIND       PRES   REMARKS
ALPENA         PTSUNNY   82  56  40 SW15G25   29.86F
BEAVER ISLAND  MOSUNNY   67  58  74 SW18G28   29.87S
BELLAIRE       CLOUDY    76  59  55 SW14G22   29.87F
CADILLAC       PTSUNNY   72  56  56 SW21G30   29.93F
CHARLEVOIX     PTSUNNY   72  61  68 SW17      29.90F
FRANKFORT      CLOUDY    65  58  78 SW13G23   29.91S
GAYLORD        LGT RAIN  72  60  66 W15G26    29.90S
GRAYLING       MOSUNNY   78  58  49 SW20G26   29.91S
HARBOR SPRINGS LGT RAIN  64  61  90 W3        29.88R
HOUGHTON LAKE  CLOUDY    75  56  51 W15G22    29.92F
MANISTEE       CLOUDY    73  57  56 SW13G28   29.93S
OSCODA         PTSUNNY   83  59  43 S15G28    29.88F
PELLSTON       CLOUDY    70  59  68 W13G23    29.87S
ROGERS CITY    MOSUNNY   83  53  35 SW15G21   29.84F
TRAVERSE CITY  PTSUNNY   75  58  55 SW13G25   29.87S
$$
MIZ007>008-015-292100-
EASTERN UPPER MICHIGAN

CITY           SKY/WX    TMP DP  RH WIND       PRES   REMARKS
KINROSS          N/A     70  61  73 SW9G24    29.86R
MACKINAC ISLAN CLOUDY    62  57  86 SW13G21   29.87R
NEWBERRY       CLOUDY    69  60  73 S17G30    29.83S
S. S. MARIE    PTSUNNY   76  56  49 SW10G22   29.83F
MUNISING         N/A     69  64  84 S10G18    29.79F
$$
MIZ004>006-011>014-085-292100-
CENTRAL UPPER MICHIGAN

CITY           SKY/WX    TMP DP  RH WIND       PRES   REMARKS
MANISTIQUE     CLOUDY    57  55  93 S10       29.84F
ESCANABA       CLOUDY    68  64  88 S7        29.82S
MENOMINEE      CLOUDY    75  61  60 SW13G20   29.84S
SAWYER-GWINN   PTSUNNY   64  63  94 SW7       29.82S
$$
MIZ001>003-009>011-084-292100-
WESTERN UPPER MICHIGAN

CITY           SKY/WX    TMP DP  RH WIND       PRES   REMARKS
HOUGHTON       CLOUDY    65  57  75 W22G28    29.79S
COPPER HARBOR    N/A     65  59  81 NW8       29.77S
IRONWOOD       CLOUDY    64  61  88 W9G16     29.82R
$$

ABBREVIATIONS USED IN REMARKS
   TC - TEMPERATURE IN CELSIUS
  WCI - WIND CHILL INDEX
   HX - HEAT INDEX
  VSB - VISIBILITY





USA.gov is the U.S. government's official web portal to all federal, state and local government web resources and services.